GW1804 Weather Reports


time (UTC)temp
C
wind
direction
speed
KPH
gust
KPH
rain 1hr
cm
rain 24hr
cm
rain mn
cm
humidity
%
barometer
mb
20260904184034 22 274 4.8 11.3 0.00 0.00 0.00 72 1014.1
20260904183532 22 203 4.8 14.5 0.00 0.00 0.00 72 1014.0
20260904183057 22 266 4.8 14.5 0.00 0.00 0.00 72 1014.0
20260904182536 22 239 3.2 11.3 0.00 0.00 0.00 73 1014.1
20260904182035 22 253 4.8 11.3 0.00 0.00 0.00 73 1014.1
20260904181603 22 214 4.8 11.3 0.00 0.00 0.00 73 1014.1
20260904181045 22 302 4.8 14.5 0.00 0.00 0.00 74 1014.0
20260904180537 22 284 4.8 14.5 0.00 0.00 0.00 75 1014.0
20260904180053 22 295 6.4 14.5 0.00 0.00 0.00 74 1014.1
20260904175532 22 305 4.8 9.7 0.00 0.00 0.00 74 1014.1
20260904175035 21 250 3.2 12.9 0.00 0.00 0.00 74 1014.2
20260904174552 21 237 4.8 12.9 0.00 0.00 0.00 74 1014.2
20260904174037 21 269 3.2 12.9 0.00 0.00 0.00 75 1014.2
20260904173532 21 208 4.8 11.3 0.00 0.00 0.00 75 1014.2
20260904173110 21 284 3.2 9.7 0.00 0.00 0.00 75 1014.1
20260904172535 21 264 1.6 9.7 0.00 0.00 0.00 75 1014.2
20260904172035 21 0 3.2 11.3 0.00 0.00 0.00 75 1014.2
20260904171552 21 258 4.8 11.3 0.00 0.00 0.00 76 1014.2
20260904171032 21 252 3.2 11.3 0.00 0.00 0.00 78 1014.3
20260904170535 20 321 4.8 11.3 0.00 0.00 0.00 77 1014.4
20260904170053 20 294 3.2 9.7 0.00 0.00 0.00 78 1014.3
20260904165537 20 241 4.8 9.7 0.00 0.00 0.00 79 1014.1
20260904165033 20 233 3.2 9.7 0.00 0.00 0.00 79 1014.1
20260904164602 20 290 3.2 9.7 0.00 0.00 0.00 79 1014.1
20260904164037 20 262 3.2 9.7 0.00 0.00 0.00 79 1014.1
20260904163532 20 243 0.0 8.0 0.00 0.00 0.00 80 1014.0
20260904163057 20 236 0.0 6.4 0.00 0.00 0.00 80 1013.9
20260904162532 19 225 3.2 6.4 0.00 0.00 0.00 80 1013.8
20260904162034 19 278 1.6 6.4 0.00 0.00 0.00 81 1013.8
20260904161555 19 0 1.6 6.4 0.00 0.00 0.00 81 1013.9
20260904161034 19 225 1.6 6.4 0.00 0.00 0.00 82 1013.8
20260904160532 18 250 0.0 6.4 0.00 0.00 0.00 82 1013.8
20260904160050 18 0 1.6 6.4 0.00 0.00 0.00 82 1013.8
20260904155535 18 0 0.0 6.4 0.00 0.00 0.00 83 1013.7
20260904155032 18 284 1.6 4.8 0.00 0.00 0.00 83 1013.6
20260904154620 18 0 0.0 3.2 0.00 0.00 0.00 83 1013.6
20260904154032 18 0 0.0 3.2 0.00 0.00 0.00 84 1013.5
20260904153534 18 0 0.0 1.6 0.00 0.00 0.00 84 1013.4
20260904153056 18 0 0.0 1.6 0.00 0.00 0.00 85 1013.5
20260904152535 18 0 0.0 3.2 0.00 0.00 0.00 85 1013.4
20260904152031 18 0 0.0 3.2 0.00 0.00 0.00 85 1013.4
20260904151606 18 0 0.0 3.2 0.00 0.00 0.00 86 1013.4
20260904151033 17 0 0.0 3.2 0.00 0.00 0.00 86 1013.4
20260904150531 17 0 0.0 3.2 0.00 0.00 0.00 87 1013.4
20260904150059 17 0 0.0 3.2 0.00 0.00 0.00 87 1013.4
20260904145532 17 0 0.0 1.6 0.00 0.00 0.00 88 1013.4
20260904145032 17 0 0.0 1.6 0.00 0.00 0.00 88 1013.4
20260904144558 17 0 0.0 1.6 0.00 0.00 0.00 88 1013.4
20260904144035 17 0 0.0 1.6 0.00 0.00 0.00 88 1013.3
20260904143532 17 0 0.0 1.6 0.00 0.00 0.00 88 1013.3
20260904143054 17 0 0.0 0.0 0.00 0.00 0.00 88 1013.3
20260904142538 17 0 0.0 0.0 0.00 0.00 0.00 88 1013.2
20260904142032 16 0 0.0 0.0 0.00 0.00 0.00 88 1013.2
20260904141624 16 0 0.0 0.0 0.00 0.00 0.00 88 1013.1
20260904141035 16 0 0.0 1.6 0.00 0.00 0.00 88 1013.2
20260904140532 16 0 0.0 1.6 0.00 0.00 0.00 88 1013.1
20260904140109 16 0 0.0 0.0 0.00 0.00 0.00 88 1013.0
20260904135532 16 0 0.0 0.0 0.00 0.00 0.00 88 1013.0
20260904135035 16 0 0.0 0.0 0.00 0.00 0.00 88 1012.9
20260904134616 16 0 0.0 1.6 0.00 0.00 0.00 88 1012.9
20260904134032 16 0 0.0 1.6 0.00 0.00 0.00 88 1012.8
20260904133531 16 0 0.0 0.0 0.00 0.00 0.00 88 1012.8
20260904133108 16 0 0.0 0.0 0.00 0.00 0.00 88 1012.7
20260904132535 16 0 0.0 0.0 0.00 0.00 0.00 87 1012.8
20260904132034 16 0 0.0 0.0 0.00 0.00 0.00 87 1012.7
20260904131614 16 0 0.0 0.0 0.00 0.00 0.00 87 1012.8
20260904131036 16 0 0.0 0.0 0.00 0.00 0.00 87 1012.7
20260904130532 16 0 0.0 0.0 0.00 0.00 0.00 87 1012.7
20260904125533 16 0 0.0 1.6 0.00 0.00 0.00 87 1012.6
20260904125035 16 0 0.0 1.6 0.00 0.00 0.00 87 1012.7
20260904124602 16 0 0.0 0.0 0.00 0.00 0.00 87 1012.7
20260904124034 17 0 0.0 0.0 0.00 0.00 0.00 87 1012.5
20260904123535 17 0 0.0 0.0 0.00 0.00 0.00 87 1012.5
20260904123121 17 0 0.0 1.6 0.00 0.00 0.00 87 1012.5
20260904122531 17 0 0.0 1.6 0.00 0.00 0.00 87 1012.5
20260904122031 17 0 0.0 0.0 0.00 0.00 0.00 87 1012.5
20260904121554 17 0 0.0 0.0 0.00 0.00 0.00 87 1012.5
20260904121034 17 0 0.0 0.0 0.00 0.00 0.00 87 1012.5
20260904120530 17 0 0.0 0.0 0.00 0.00 0.00 87 1012.4
20260904120055 17 0 0.0 0.0 0.00 0.00 0.00 87 1012.4
20260904115531 17 0 0.0 0.0 0.00 0.00 0.00 87 1012.5
20260904115035 17 0 0.0 0.0 0.00 0.00 0.00 87 1012.5
20260904114552 17 0 0.0 0.0 0.00 0.00 0.00 87 1012.6
20260904114035 17 0 0.0 0.0 0.00 0.00 0.00 87 1012.7
20260904113533 17 0 0.0 0.0 0.00 0.00 0.00 87 1012.7
20260904113103 17 0 0.0 0.0 0.00 0.00 0.00 88 1012.7
20260904112532 17 0 0.0 0.0 0.00 0.00 0.00 88 1012.6
20260904112035 17 0 0.0 1.6 0.00 0.00 0.00 88 1012.7
20260904111556 17 0 0.0 1.6 0.00 0.00 0.00 88 1012.7
20260904111034 17 0 0.0 1.6 0.00 0.00 0.00 88 1012.7
20260904110534 17 0 0.0 1.6 0.00 0.00 0.00 88 1012.7
20260904110052 17 0 0.0 1.6 0.00 0.00 0.00 88 1012.7
20260904105535 17 0 0.0 1.6 0.00 0.00 0.00 89 1012.7
20260904105034 17 0 0.0 1.6 0.00 0.00 0.00 89 1012.7
20260904104602 17 0 0.0 1.6 0.00 0.00 0.00 89 1012.7
20260904104032 17 0 0.0 1.6 0.00 0.00 0.00 89 1012.6
20260904103531 17 0 0.0 1.6 0.00 0.00 0.00 89 1012.6
20260904103106 17 0 0.0 1.6 0.00 0.00 0.00 89 1012.5
20260904102531 17 0 0.0 1.6 0.00 0.00 0.00 89 1012.5
20260904102032 17 0 0.0 1.6 0.00 0.00 0.00 89 1012.4
20260904101556 17 0 0.0 1.6 0.00 0.00 0.00 89 1012.4
20260904101030 17 0 0.0 1.6 0.00 0.00 0.00 89 1012.3
20260904100535 17 0 0.0 1.6 0.00 0.00 0.00 89 1012.4
20260904095533 17 0 0.0 1.6 0.00 0.00 0.00 88 1012.4
20260904095031 17 0 0.0 1.6 0.00 0.00 0.00 88 1012.4
20260904094553 17 0 0.0 1.6 0.00 0.00 0.00 88 1012.4
20260904094031 17 0 0.0 1.6 0.00 0.00 0.00 88 1012.4
20260904093533 17 0 0.0 1.6 0.00 0.00 0.00 88 1012.3
20260904093100 17 0 0.0 1.6 0.00 0.00 0.00 88 1012.3
20260904092531 17 0 0.0 1.6 0.00 0.00 0.00 88 1012.3
20260904092031 17 0 0.0 0.0 0.00 0.00 0.00 87 1012.2
20260904091556 17 0 0.0 0.0 0.00 0.00 0.00 87 1012.3
20260904091032 17 0 0.0 0.0 0.00 0.00 0.00 87 1012.3
20260904090532 17 0 0.0 1.6 0.00 0.00 0.00 87 1012.2
20260904090054 17 0 0.0 1.6 0.00 0.00 0.00 87 1012.2
20260904085534 17 0 0.0 0.0 0.00 0.00 0.00 87 1012.3
20260904085033 17 0 0.0 0.0 0.00 0.00 0.00 87 1012.4
20260904084600 17 0 0.0 0.0 0.00 0.00 0.00 87 1012.4
20260904084036 17 0 0.0 0.0 0.00 0.00 0.00 87 1012.4
20260904083537 17 0 0.0 0.0 0.00 0.00 0.00 87 1012.4
20260904083057 17 0 0.0 1.6 0.00 0.00 0.00 87 1012.5
20260904082537 17 0 0.0 1.6 0.00 0.00 0.00 87 1012.5
20260904082035 17 0 0.0 1.6 0.00 0.00 0.00 87 1012.6
20260904081554 17 0 0.0 1.6 0.00 0.00 0.00 86 1012.6
20260904081035 17 0 0.0 0.0 0.00 0.00 0.00 86 1012.6
20260904080537 17 0 0.0 1.6 0.00 0.00 0.00 86 1012.7
20260904080055 17 0 0.0 1.6 0.00 0.00 0.00 86 1012.7
20260904075534 17 0 0.0 1.6 0.00 0.00 0.00 86 1012.7
20260904075036 17 0 0.0 0.0 0.00 0.00 0.00 86 1012.7
20260904074603 17 0 0.0 0.0 0.00 0.00 0.00 86 1012.8
20260904074036 17 0 0.0 1.6 0.00 0.00 0.00 86 1012.7
20260904073536 17 0 0.0 1.6 0.00 0.00 0.00 86 1012.6
20260904073057 17 0 0.0 1.6 0.00 0.00 0.00 86 1012.7
20260904072535 17 0 0.0 1.6 0.00 0.00 0.00 85 1012.6
20260904072034 17 0 0.0 0.0 0.00 0.00 0.00 85 1012.7
20260904071605 17 0 0.0 0.0 0.00 0.00 0.00 85 1012.7
20260904071039 17 0 0.0 0.0 0.00 0.00 0.00 85 1012.7
20260904070540 17 0 0.0 1.6 0.00 0.00 0.00 85 1012.7
20260904070106 17 0 0.0 1.6 0.00 0.00 0.00 85 1012.7
20260904065536 17 0 0.0 0.0 0.00 0.00 0.00 85 1012.7
20260904065036 17 0 0.0 1.6 0.00 0.00 0.00 85 1012.8
20260904064620 17 0 0.0 1.6 0.00 0.00 0.00 85 1012.7
20260904064036 18 309 0.0 1.6 0.00 0.00 0.00 85 1012.7
20260904063537 18 0 0.0 0.0 0.00 0.00 0.00 85 1012.7
20260904063054 18 0 0.0 0.0 0.00 0.00 0.00 85 1012.8
20260904062534 18 0 0.0 0.0 0.00 0.00 0.00 85 1012.7
20260904062035 18 0 0.0 0.0 0.00 0.00 0.00 85 1012.7
20260904061553 18 0 0.0 0.0 0.00 0.00 0.00 85 1012.7
20260904061037 18 0 0.0 0.0 0.00 0.00 0.00 85 1012.7
20260904060537 18 0 0.0 0.0 0.00 0.00 0.00 85 1012.7
20260904060054 18 0 0.0 0.0 0.00 0.00 0.00 85 1012.7
20260904055532 18 0 0.0 0.0 0.00 0.00 0.00 85 1012.7
20260904055036 18 0 0.0 1.6 0.00 0.00 0.00 85 1012.7
20260904054600 18 0 0.0 1.6 0.00 0.00 0.00 85 1012.7
20260904054036 18 0 0.0 1.6 0.00 0.00 0.00 85 1012.7
20260904053536 18 0 0.0 0.0 0.00 0.00 0.00 84 1012.7
20260904053059 18 0 0.0 0.0 0.00 0.00 0.00 84 1012.7
20260904052534 18 0 0.0 0.0 0.00 0.00 0.00 84 1012.8
20260904052034 18 0 0.0 0.0 0.00 0.00 0.00 84 1012.8
20260904051607 18 0 0.0 0.0 0.00 0.00 0.00 84 1012.8
20260904051031 18 0 0.0 1.6 0.00 0.00 0.00 84 1012.8
20260904050531 18 0 0.0 3.2 0.00 0.00 0.00 85 1012.8
20260904050142 18 0 0.0 3.2 0.00 0.00 0.00 84 1012.9
20260904045532 18 0 0.0 0.0 0.00 0.00 0.00 84 1012.8
20260904045032 18 0 0.0 1.6 0.00 0.00 0.00 84 1012.8
20260904044602 18 0 0.0 1.6 0.00 0.00 0.00 84 1012.9
20260904044031 18 0 0.0 1.6 0.00 0.00 0.00 84 1012.9
20260904043535 18 0 0.0 1.6 0.00 0.00 0.00 84 1012.8
20260904043055 18 0 0.0 1.6 0.00 0.00 0.00 84 1012.8
20260904042531 18 0 0.0 3.2 0.00 0.00 0.00 84 1012.9
20260904042032 18 0 0.0 3.2 0.00 0.00 0.00 84 1012.9
20260904041603 18 0 0.0 3.2 0.00 0.00 0.00 84 1012.9
20260904041030 18 0 0.0 3.2 0.00 0.00 0.00 84 1012.9
20260904040531 18 0 0.0 4.8 0.00 0.00 0.00 84 1012.9
20260904040054 18 217 1.6 4.8 0.00 0.00 0.00 84 1012.9
20260904035532 18 217 0.0 4.8 0.00 0.00 0.00 83 1012.8
20260904035033 18 0 0.0 4.8 0.00 0.00 0.00 83 1012.7
20260904034608 18 217 0.0 4.8 0.00 0.00 0.00 83 1012.7
20260904034035 19 0 0.0 3.2 0.00 0.00 0.00 83 1012.6
20260904033534 19 0 0.0 3.2 0.00 0.00 0.00 82 1012.6
20260904033056 19 0 0.0 3.2 0.00 0.00 0.00 82 1012.5
20260904032530 19 238 0.0 3.2 0.00 0.00 0.00 82 1012.5
20260904032030 19 238 0.0 3.2 0.00 0.00 0.00 82 1012.4
20260904031552 19 0 0.0 3.2 0.00 0.00 0.00 82 1012.4
20260904031030 19 0 0.0 4.8 0.00 0.00 0.00 82 1012.4
20260904030531 19 238 1.6 4.8 0.00 0.00 0.00 81 1012.3
20260904030052 19 238 0.0 3.2 0.00 0.00 0.00 81 1012.3
20260904025531 19 0 0.0 4.8 0.00 0.00 0.00 81 1012.4
20260904025032 20 0 1.6 4.8 0.00 0.00 0.00 80 1012.3
20260904024555 20 0 0.0 4.8 0.00 0.00 0.00 80 1012.3
20260904024033 20 286 0.0 3.2 0.00 0.00 0.00 80 1012.3
20260904023537 20 0 0.0 3.2 0.00 0.00 0.00 80 1012.4
20260904023053 20 250 0.0 6.4 0.00 0.00 0.00 80 1012.4
20260904022532 20 250 0.0 6.4 0.00 0.00 0.00 79 1012.4
20260904022033 20 230 1.6 6.4 0.00 0.00 0.00 79 1012.4
20260904021552 20 286 1.6 6.4 0.00 0.00 0.00 79 1012.4
20260904021035 20 0 0.0 4.8 0.00 0.00 0.00 79 1012.4
20260904020536 20 280 1.6 4.8 0.00 0.00 0.00 78 1012.3
20260904015535 20 310 3.2 9.7 0.00 0.00 0.00 78 1012.5
20260904015035 20 276 1.6 9.7 0.00 0.00 0.00 78 1012.4
20260904014623 20 268 3.2 11.3 0.00 0.00 0.00 79 1012.4
20260904014035 20 313 4.8 11.3 0.00 0.00 0.00 79 1012.4
20260904013535 21 288 3.2 12.9 0.00 0.00 0.00 79 1012.4
20260904013056 21 296 4.8 12.9 0.00 0.00 0.00 79 1012.5
20260904012536 21 323 3.2 11.3 0.00 0.00 0.00 79 1012.5
20260904012039 21 262 3.2 9.7 0.00 0.00 0.00 79 1012.5
20260904011601 21 288 3.2 9.7 0.00 0.00 0.00 78 1012.5
20260904011035 21 286 4.8 14.5 0.00 0.00 0.00 77 1012.6
20260904010538 21 327 4.8 14.5 0.00 0.00 0.00 77 1012.6
20260904005535 21 265 3.2 14.5 0.00 0.00 0.00 77 1012.7
20260904005035 21 308 6.4 16.1 0.00 0.00 0.00 76 1012.7
20260904004559 22 306 4.8 16.1 0.00 0.00 0.00 75 1012.5
20260904004035 22 298 6.4 16.1 0.00 0.00 0.00 75 1012.5
20260904003540 22 309 4.8 16.1 0.00 0.00 0.00 75 1012.5
20260904003109 22 261 6.4 16.1 0.00 0.00 0.00 74 1012.5
20260904002536 22 308 4.8 16.1 0.00 0.00 0.00 74 1012.5
20260904002036 22 304 6.4 14.5 0.00 0.00 0.00 73 1012.5
20260904001604 22 277 8.0 16.1 0.00 0.00 0.00 73 1012.6
20260904001034 22 300 6.4 16.1 0.00 0.00 0.00 73 1012.6
20260904000535 22 275 6.4 16.1 0.00 0.00 0.00 72 1012.7
20260903235535 23 292 8.0 16.1 0.00 0.00 0.00 72 1012.7
20260903235038 23 301 6.4 16.1 0.00 0.00 0.00 73 1012.6
20260903234600 23 309 8.0 16.1 0.00 0.00 0.00 73 1012.6
20260903234035 23 286 8.0 17.7 0.00 0.00 0.00 72 1012.7
20260903233535 23 305 8.0 17.7 0.00 0.00 0.00 73 1012.6
20260903233055 23 256 9.7 17.7 0.00 0.00 0.00 72 1012.7
20260903232535 23 234 4.8 16.1 0.00 0.00 0.00 73 1012.7
20260903232036 23 290 8.0 16.1 0.00 0.00 0.00 73 1012.7
20260903231612 23 220 8.0 19.3 0.00 0.00 0.00 74 1012.7
20260903231034 23 203 9.7 19.3 0.00 0.00 0.00 74 1012.8
20260903230532 23 266 6.4 19.3 0.00 0.00 0.00 74 1012.7
20260903230114 23 244 8.0 19.3 0.00 0.00 0.00 74 1012.7
20260903225536 23 267 8.0 19.3 0.00 0.00 0.00 74 1012.7
20260903225038 23 267 8.0 16.1 0.00 0.00 0.00 75 1012.7
20260903224558 23 232 8.0 16.1 0.00 0.00 0.00 75 1012.7
20260903224039 23 295 6.4 17.7 0.00 0.00 0.00 74 1012.8
20260903223536 23 290 8.0 17.7 0.00 0.00 0.00 74 1012.9
20260903223106 23 318 6.4 16.1 0.00 0.00 0.00 75 1012.8
20260903222535 23 279 6.4 16.1 0.00 0.00 0.00 73 1012.9
20260903222037 24 290 6.4 16.1 0.00 0.00 0.00 74 1012.8
20260903221602 24 286 8.0 17.7 0.00 0.00 0.00 74 1012.9
20260903221036 24 271 6.4 17.7 0.00 0.00 0.00 73 1013.0
20260903220537 24 291 6.4 17.7 0.00 0.00 0.00 75 1013.1
20260903220108 23 221 8.0 19.3 0.00 0.00 0.00 75 1013.1
20260903215537 23 236 8.0 19.3 0.00 0.00 0.00 75 1013.2
20260903215033 24 319 9.7 17.7 0.00 0.00 0.00 74 1013.1
20260903214600 24 273 6.4 25.7 0.00 0.00 0.00 75 1013.2
20260903214036 23 296 9.7 25.7 0.00 0.00 0.00 75 1013.2
20260903213535 23 194 9.7 19.3 0.00 0.00 0.00 75 1013.3
20260903213056 23 296 9.7 19.3 0.00 0.00 0.00 75 1013.3
20260903212535 24 242 8.0 19.3 0.00 0.00 0.00 75 1013.3
20260903212036 24 250 6.4 19.3 0.00 0.00 0.00 76 1013.3
20260903211616 24 221 8.0 19.3 0.00 0.00 0.00 74 1013.4
20260903211036 24 219 8.0 17.7 0.00 0.00 0.00 74 1013.4
20260903210540 24 223 9.7 19.3 0.00 0.00 0.00 75 1013.4
20260903210101 24 184 9.7 19.3 0.00 0.00 0.00 74 1013.3
20260903205535 24 301 8.0 19.3 0.00 0.00 0.00 74 1013.4
20260903205032 24 207 6.4 17.7 0.00 0.00 0.00 75 1013.3
20260903204603 24 281 8.0 17.7 0.00 0.00 0.00 75 1013.3
20260903204034 24 284 8.0 17.7 0.00 0.00 0.00 75 1013.3
20260903203535 23 264 8.0 17.7 0.00 0.00 0.00 74 1013.4
20260903203055 24 329 6.4 17.7 0.00 0.00 0.00 74 1013.4
20260903202539 24 281 8.0 17.7 0.00 0.00 0.00 75 1013.4
20260903202037 24 250 6.4 16.1 0.00 0.00 0.00 74 1013.4
20260903201602 23 192 6.4 17.7 0.00 0.00 0.00 75 1013.4
20260903201039 23 198 8.0 17.7 0.00 0.00 0.00 74 1013.4
20260903200535 23 283 6.4 17.7 0.00 0.00 0.00 75 1013.5
20260903200107 23 285 8.0 17.7 0.00 0.00 0.00 76 1013.6
20260903195534 23 237 6.4 16.1 0.00 0.00 0.00 76 1013.6
20260903195055 23 250 6.4 16.1 0.00 0.00 0.00 76 1013.6
20260903194555 23 227 6.4 14.5 0.00 0.00 0.00 77 1013.6
20260903194036 23 278 8.0 16.1 0.00 0.00 0.00 77 1013.7
20260903193534 23 270 8.0 16.1 0.00 0.00 0.00 78 1013.8
20260903193105 23 277 8.0 16.1 0.00 0.00 0.00 78 1013.8
20260903192535 23 240 6.4 16.1 0.00 0.00 0.00 77 1013.9
20260903192035 23 279 6.4 16.1 0.00 0.00 0.00 77 1013.9
20260903191603 23 242 6.4 16.1 0.00 0.00 0.00 78 1013.9
20260903191032 23 161 6.4 16.1 0.00 0.00 0.00 78 1014.0
20260903190535 23 267 6.4 16.1 0.00 0.00 0.00 77 1014.0
20260903190103 22 207 8.0 16.1 0.00 0.00 0.00 76 1014.1
20260903185534 23 267 8.0 16.1 0.00 0.00 0.00 77 1014.2
20260903185036 23 268 8.0 16.1 0.00 0.00 0.00 76 1014.3
20260903184554 23 223 8.0 17.7 0.00 0.00 0.00 76 1014.4